When you browse on this site, cookies collect data to enhance your experience and personalize the content and advertising you see.
Visit our Privacy Policy to learn more. By continuing to use the site, you agree to this use of cookies and data.
  • In Hungary
  • List of Countries
  • For 7 days
  • Water Temperature
  • Satellite Maps
  • Weather Map
  • News
  • Weather Widgets
  • user-avatar
    Login

    Hourly Weather Nikopol

    Today, 20 April, Saturday

    Time Temperature Precipitation Wind Pressure Humidity
    00:00 +5°C° 0 mm 4 mps 764 mmHg 55%
    01:00 +4°C° 0 mm 4 mps 763 mmHg 57%
    02:00 +4°C° 0 mm 4 mps 763 mmHg 60%
    03:00 +3°C° 0 mm 4 mps 763 mmHg 61%
    04:00 +3°C° 0 mm 4 mps 763 mmHg 63%
    05:00 +3°C° 0 mm 4 mps 763 mmHg 64%
    06:00 +3°C° 0 mm 5 mps 764 mmHg 57%
    07:00 +6°C° 0 mm 5 mps 764 mmHg 51%
    08:00 +7°C° 0 mm 6 mps 763 mmHg 43%
    09:00 +8°C° 0 mm 6 mps 763 mmHg 41%
    10:00 +9°C° 0 mm 6 mps 763 mmHg 39%
    11:00 +10°C° 0 mm 6 mps 763 mmHg 37%
    12:00 +12°C° 0 mm 5 mps 763 mmHg 36%
    13:00 +12°C° 0 mm 5 mps 763 mmHg 35%
    14:00 +13°C° 0 mm 5 mps 763 mmHg 34%
    15:00 +13°C° 0 mm 5 mps 763 mmHg 35%
    16:00 +12°C° 0 mm 4 mps 763 mmHg 36%
    17:00 +12°C° 0 mm 4 mps 762 mmHg 38%
    18:00 +11°C° 0 mm 3 mps 763 mmHg 42%
    19:00 +9°C° 0 mm 3 mps 763 mmHg 45%
    20:00 +8°C° 0 mm 2 mps 763 mmHg 49%
    21:00 +8°C° 0 mm 2 mps 763 mmHg 51%
    22:00 +7°C° 0 mm 2 mps 763 mmHg 52%
    23:00 +8°C° 0 mm 1 mps 763 mmHg 54%

    Tomorrow, 21 April, Sunday

    Time Temperature Precipitation Wind Pressure Humidity
    00:00 +7°C° 0 mm 1 mps 763 mmHg 56%
    01:00 +7°C° 0 mm 1 mps 763 mmHg 57%
    02:00 +6°C° 0 mm 1 mps 763 mmHg 58%
    03:00 +6°C° 0 mm 1 mps 763 mmHg 59%
    04:00 +6°C° 0 mm 1 mps 763 mmHg 59%
    05:00 +5°C° 0 mm 2 mps 763 mmHg 60%
    06:00 +6°C° 0 mm 2 mps 763 mmHg 55%
    07:00 +8°C° 0 mm 3 mps 763 mmHg 51%
    08:00 +10°C° 0 mm 3 mps 763 mmHg 47%
    09:00 +10°C° 0 mm 3 mps 763 mmHg 43%
    10:00 +11°C° 0 mm 3 mps 763 mmHg 39%
    11:00 +12°C° 0 mm 4 mps 763 mmHg 35%
    12:00 +13°C° 0 mm 3 mps 763 mmHg 34%
    13:00 +13°C° 0 mm 3 mps 763 mmHg 33%
    14:00 +14°C° 0 mm 3 mps 762 mmHg 33%
    15:00 +13°C° 0 mm 3 mps 762 mmHg 34%
    16:00 +13°C° 0 mm 3 mps 762 mmHg 35%
    17:00 +13°C° 0 mm 3 mps 762 mmHg 37%
    18:00 +12°C° 0 mm 3 mps 762 mmHg 40%
    19:00 +12°C° 0 mm 2 mps 763 mmHg 43%
    20:00 +10°C° 0 mm 2 mps 763 mmHg 46%
    21:00 +10°C° 0 mm 2 mps 763 mmHg 47%
    22:00 +10°C° 0 mm 2 mps 763 mmHg 48%
    23:00 +10°C° 0 mm 2 mps 763 mmHg 49%

    Day after tomorrow, 22 April, Monday

    Time Temperature Precipitation Wind Pressure Humidity
    00:00 +10°C° 0 mm 2 mps 763 mmHg 51%
    01:00 +9°C° 0 mm 3 mps 763 mmHg 52%
    02:00 +9°C° 0 mm 3 mps 763 mmHg 54%
    03:00 +8°C° 0 mm 3 mps 763 mmHg 56%
    04:00 +8°C° 0 mm 3 mps 763 mmHg 58%
    05:00 +7°C° 0 mm 3 mps 763 mmHg 60%
    06:00 +8°C° 0 mm 4 mps 764 mmHg 54%
    07:00 +9°C° 0 mm 5 mps 764 mmHg 49%
    08:00 +12°C° 0 mm 5 mps 764 mmHg 43%
    09:00 +12°C° 0 mm 5 mps 764 mmHg 40%
    10:00 +13°C° 0 mm 5 mps 764 mmHg 38%
    11:00 +14°C° 0 mm 5 mps 764 mmHg 35%
    12:00 +14°C° 0 mm 5 mps 764 mmHg 35%
    13:00 +14°C° 0 mm 5 mps 764 mmHg 35%
    14:00 +15°C° 0 mm 4 mps 764 mmHg 34%
    15:00 +14°C° 0 mm 4 mps 764 mmHg 36%
    16:00 +14°C° 0 mm 4 mps 764 mmHg 38%
    17:00 +14°C° 0 mm 4 mps 764 mmHg 39%
    18:00 +13°C° 0 mm 4 mps 764 mmHg 44%
    19:00 +11°C° 0 mm 4 mps 765 mmHg 48%
    20:00 +10°C° 0 mm 4 mps 765 mmHg 53%
    21:00 +10°C° 0 mm 4 mps 765 mmHg 54%
    22:00 +8°C° 0 mm 4 mps 765 mmHg 54%
    23:00 +8°C° 0 mm 4 mps 765 mmHg 55%

    23 April, Tuesday

    Time Temperature Precipitation Wind Pressure Humidity
    00:00 +7°C° 0 mm 4 mps 766 mmHg 56%
    01:00 +7°C° 0 mm 4 mps 766 mmHg 58%
    02:00 +7°C° 0 mm 4 mps 766 mmHg 59%
    03:00 +7°C° 0 mm 3 mps 766 mmHg 60%
    04:00 +7°C° 0 mm 3 mps 766 mmHg 61%
    05:00 +7°C° 0 mm 3 mps 766 mmHg 62%
    06:00 +9°C° 0 mm 3 mps 767 mmHg 58%
    07:00 +10°C° 0 mm 3 mps 767 mmHg 53%
    08:00 +12°C° 0 mm 3 mps 767 mmHg 49%
    09:00 +13°C° 0 mm 3 mps 767 mmHg 45%
    10:00 +14°C° 0 mm 3 mps 767 mmHg 40%
    11:00 +16°C° 0 mm 3 mps 767 mmHg 36%
    12:00 +16°C° 0 mm 3 mps 767 mmHg 37%
    13:00 +16°C° 0 mm 3 mps 767 mmHg 38%
    14:00 +16°C° 0 mm 3 mps 767 mmHg 39%
    15:00 +16°C° 0 mm 3 mps 767 mmHg 41%
    16:00 +16°C° 0 mm 2 mps 767 mmHg 43%
    17:00 +16°C° 0 mm 2 mps 767 mmHg 44%
    18:00 +14°C° 0 mm 2 mps 767 mmHg 48%
    19:00 +13°C° 0 mm 2 mps 767 mmHg 53%
    20:00 +12°C° 0 mm 2 mps 768 mmHg 57%
    21:00 +10°C° 0 mm 2 mps 768 mmHg 58%
    22:00 +10°C° 0 mm 2 mps 768 mmHg 60%
    23:00 +10°C° 0 mm 2 mps 768 mmHg 62%

    24 April, Wednesday

    Time Temperature Precipitation Wind Pressure Humidity
    00:00 +9°C° 0 mm 2 mps 768 mmHg 63%
    01:00 +9°C° 0 mm 2 mps 768 mmHg 64%
    02:00 +9°C° 0 mm 1 mps 768 mmHg 65%
    03:00 +8°C° 0 mm 2 mps 768 mmHg 66%
    04:00 +8°C° 0 mm 2 mps 768 mmHg 67%
    05:00 +7°C° 0 mm 2 mps 768 mmHg 68%
    06:00 +9°C° 0 mm 2 mps 768 mmHg 63%
    07:00 +11°C° 0 mm 3 mps 768 mmHg 58%
    08:00 +13°C° 0 mm 3 mps 768 mmHg 53%
    09:00 +14°C° 0 mm 3 mps 768 mmHg 48%
    10:00 +16°C° 0 mm 3 mps 768 mmHg 44%
    11:00 +17°C° 0 mm 3 mps 768 mmHg 40%
    12:00 +17°C° 0 mm 3 mps 768 mmHg 38%
    13:00 +18°C° 0 mm 2 mps 768 mmHg 37%
    14:00 +18°C° 0 mm 2 mps 767 mmHg 36%
    15:00 +18°C° 0 mm 2 mps 767 mmHg 37%
    16:00 +18°C° 0 mm 2 mps 767 mmHg 38%
    17:00 +18°C° 0 mm 2 mps 767 mmHg 39%
    18:00 +16°C° 0 mm 1 mps 767 mmHg 42%
    19:00 +15°C° 0 mm 1 mps 767 mmHg 46%
    20:00 +12°C° 0 mm 0 mps 767 mmHg 50%
    21:00 +13°C° 0 mm 1 mps 767 mmHg 51%
    22:00 +13°C° 0 mm 1 mps 767 mmHg 51%
    23:00 +12°C° 0 mm 1 mps 767 mmHg 52%

    25 April, Thursday

    Time Temperature Precipitation Wind Pressure Humidity
    00:00 +12°C° 0 mm 2 mps 767 mmHg 54%
    01:00 +12°C° 0 mm 2 mps 767 mmHg 55%
    02:00 +10°C° 0 mm 2 mps 768 mmHg 57%
    03:00 +10°C° 0 mm 2 mps 768 mmHg 58%
    04:00 +10°C° 0 mm 2 mps 768 mmHg 60%
    05:00 +10°C° 0 mm 2 mps 768 mmHg 62%
    06:00 +11°C° 0 mm 3 mps 768 mmHg 58%
    07:00 +13°C° 0 mm 3 mps 768 mmHg 55%
    08:00 +16°C° 0 mm 3 mps 768 mmHg 52%
    09:00 +17°C° 0 mm 2 mps 768 mmHg 49%
    10:00 +19°C° 0 mm 2 mps 767 mmHg 47%
    11:00 +20°C° 0 mm 2 mps 767 mmHg 44%
    12:00 +20°C° 0 mm 2 mps 767 mmHg 44%
    13:00 +22°C° 0 mm 1 mps 766 mmHg 43%
    14:00 +22°C° 0 mm 1 mps 766 mmHg 43%
    15:00 +22°C° 0 mm 1 mps 766 mmHg 46%
    16:00 +21°C° 0 mm 1 mps 766 mmHg 49%
    17:00 +19°C° 0 mm 0 mps 765 mmHg 52%
    18:00 +20°C° 0 mm 1 mps 765 mmHg 55%
    19:00 +18°C° 0 mm 1 mps 765 mmHg 57%
    20:00 +16°C° 0 mm 1 mps 765 mmHg 59%
    21:00 +16°C° 0 mm 1 mps 765 mmHg 60%
    22:00 +15°C° 0 mm 2 mps 765 mmHg 62%
    23:00 +15°C° 0 mm 2 mps 765 mmHg 63%
    Show more